Tracking 23758 objects as of 27-Oct-2021
HD Live streaming from Space Station
objects crossing your sky now

IRIDIUM 33 DEB

Track IRIDIUM 33 DEB now!
10-day predictions


NORAD ID: 34511
Int'l Code: 1997-051HC
Perigee: 709.7 km
Apogee: 751.3 km
Inclination: 86.4 °
Period: 99.3 minutes
Semi major axis: 7101 km
RCS: 0.037 m2 (small)
Launch date: September 14, 1997
Source: United States (US)
Launch site: TYURATAM MISSILE AND SPACE COMPLEX (TTMTR)

Note: This is SATELLITE DEBRIS
aabbcc
Your satellite tracking list
Your tracking list is empty




NASA's NSSDC Master Catalog

Two Line Element Set (TLE):
1 34511U 97051HC  21300.11818653  .00002453  00000-0  61608-3 0  9993
2 34511  86.3869 322.2150 0029244 292.4091 129.4795 14.50705029666197
Source of the keplerian elements: AFSPC